SCP
0 0 0 0 0 0 0 0 0 -0 -0 -0 0 0 0 0 0 -0 -0 0 -0 -0 -0 0 0 0 0 -0 -0 0 0 0 0 0 -0 0 0 0 -0 -0 0 0 0
0 0 0 -0 0 0 0 0 -0 -0 0 0 0 0 0 0 0 0 -0 0 -0 -0 0 0 0 -0 0 0 0 0 0 0 0 -0 -0 -0 0 0 -0 -0 0 0 0
0 0 0 -0 0 0 0 0 -0 -0 -0 -0 -0 0 0 -0 0 -0 0 0 0 0 0 -0 0 0 -0 0 0 0 -0 0 0 0 0 -0 -0 -0 -0 0 0 0 0
0 -0 0 -0 0 0 0 0 0 -0 -0 -0 -0 -0 -0 0 0 -0 0 0 0 0 -0 -0 -0 -0 -0 -0 -0 0 0 -0 -0 -0 -0 -0 -0 0 0 -0 -0 0 0
-0 0 0 0 0 0 0 0 0 -0 -0 -0 -0 -0 -0 0 0 0 0 0 0 0 0 -0 -0 -0 -0 -0 -0 -0 0 -0 -0 0 0 -0 -0 0 0 -0 -0 0 -0
0 0 0 0 0 0 0 0 0 0 0 0 0 0 0 0 0 0 0 0 0 0 0 -0 0 -0 -0 -0 -0 -0 -0 0 0 0 0 -0 -0 -0 -0 0 -0 0 -0
0 0 0 -0 0 0 0 0 0 0 0 -0 0 0 0 0 0 0 0 0 0 0 0 -0 -0 -0 -0 -0 -0 -0 -0 -0 -0 -0 -0 0 -0 0 -0 -0 -0 -0 -0
0 0 0 0 0 0 0 0 -0 0 -0 -0 0 0 0 0 0 -0 0 0 0 0 0 0 0 -0 -0 -0 -0 0 0 -0 -0 -0 -0 0 0 -0 -0 -0 -0 -0 -0
0 0 0 0 0 -0 -0 0 0 0 -0 0 0 0 0 0 0 0 -0 -0 -0 -0 0 0 0 -0 0 0 0 0 -0 -0 -0 -0 -0 -0 -0 -0 -0 -0 -0 -0 -0
0 0 0 0 0 0 0 0 0 -0 -0 -0 -0 0 0 0 0 0 0 -0 -0 -0 -0 -0 0 0 0 0 0 -0 -0 -0 0 -0 -0 -0 0 -0 -0 -0 -0 -0 -0
0 0 0 0 -0 0 -0 0 -0 -0 -0 -0 0 -0 0 0 0 0 -0 -0 -0 -0 -0 -0 -0 0 0 0 -0 -0 -0 -0 -0 -0 0 -0 -0 -0 -0 -0 -0 -0 -0
-0 0 0 0 0 -0 0 0 0 0 0 0 0 0 0 0 -0 0 0 -0 -0 -0 -0 -0 0 -0 -0 -0 -0 -0 -0 -0 -0 0 0 -0 -0 -0 -0 -0 -0 -0 -0
-0 0 0 -0 -0 -0 0 0 0 -0 -0 -0 -0 -0 0 0 -0 0 -0 -0 -0 -0 0 0 -0 -0 -0 -0 -0 0 -0 0 0 0 0 -0 -0 -0 -0 -0 -0 -0 -0
0 0 0 0 0 0 0 0 0 -0 0 -0 -0 -0 0 0 0 -0 -0 0 -0 0 0 0 -0 -0 -0 0 -0 -0 -0 0 0 0 0 0 0 -0 -0 -0 -0 -0 -0
-0 0 0 0 0 0 0 0 -0 0 0 0 0 0 -0 0 -0 -0 -0 0 -0 0 0 -0 -0 0 -0 -0 -0 -0 -0 0 0 0 0 0 0 0 0 0 -0 -0 -0
-0 -0 0 0 0 0 0 0 0 0 -0 0 -0 0 -0 -0 -0 -0 0 0 -0 -0 0 0 0 -0 0 0 0 -0 0 0 0 0 0 0 0 0 0 0 0 0 -0
-0 0 -0 -0 -0 -0 -0 -0 0 0 -0 0 0 0 -0 -0 -0 0 0 0 0 -0 -0 0 -0 -0 0 0 0 0 -0 -0 0 0 0 0 0 0 0 0 0 0 0
-0 -0 -0 -0 -0 -0 0 0 0 0 0 0 -0 0 -0 -0 -0 0 -0 0 -0 -0 -0 -0 -0 0 0 0 0 0 0 0 0 0 0 0 0 0 0 0 0 0 0
-0 -0 -0 -0 -0 -0 0 0 0 0 0 0 0 0 0 0 -0 0 0 0 -0 -0 -0 -0 0 0 -0 -0 0 -0 0 0 0 0 0 0 0 0 0 0 0 0 0
-0 -0 -0 -0 -0 -0 0 0 -0 0 0 0 0 0 0 0 -0 0 0 -0 0 -0 0 -0 -0 -0 0 0 0 -0 -0 0 0 0 0 0 0 0 0 0 0 0 0
-0 -0 -0 -0 -0 -0 0 0 0 0 0 0 0 0 0 0 -0 0 -0 0 -0 -0 -0 -0 -0 -0 0 0 0 0 0 -0 -0 0 0 0 0 0 0 0 0 0 0
-0 -0 -0 -1 -1 -0 -0 -0 0 0 0 0 0 0 0 0 0 0 0 -0 0 -0 -0 -0 -0 -0 -0 0 0 0 0 -0 -0 -0 0 0 0 0 0 0 -0 0 0
-0 -0 -0 -1 -1 -0 -0 0 0 0 0 0 0 0 0 0 -0 0 0 0 -0 0 -0 -0 -0 0 -0 0 0 0 0 0 0 0 0 0 0 0 0 0 0 -0 0
-0 -0 -0 -2 -1 -1 -0 -0 -0 0 0 0 0 0 -0 0 0 0 0 -0 -0 -0 -0 -0 -0 -0 -0 -0 -0 -0 0 -0 0 0 -0 0 0 0 0 0 0 -0 0
-0 -1 -1 -1 -1 -1 -1 -1 -0 0 0 0 -0 0 0 0 0 0 0 0 0 -0 -0 -0 -0 -0 -0 -0 -0 -0 0 -0 -0 0 0 0 0 0 0 0 0 0 0
-0 -1 -1 -2 -1 -1 -0 -0 -0 -0 -0 -0 -0 -0 -0 0 0 0 -0 -0 -0 -0 -0 -0 -0 -0 -0 -0 -0 0 -0 -0 -0 -0 0 0 0 0 0 0 0 0 0
Wind_Speed_500mb
41 45 42 44 39 41 44 40 39 38 39 42 38 34 29 32 30 26 26 25 26 23 19 25 32 35 31 31 29 33 37 39 41 39 46 49 48 44 35 32 38 40 40
49 45 48 40 37 41 40 37 36 35 34 37 33 29 25 26 27 25 26 27 28 22 19 27 38 38 35 38 36 39 39 40 38 38 43 44 42 39 37 32 36 38 37
48 44 45 37 39 41 38 37 36 34 34 32 30 28 25 24 23 22 25 27 29 31 36 46 50 40 40 40 40 40 40 45 44 40 36 36 38 35 34 35 39 39 39
45 45 42 39 43 40 37 36 36 31 30 27 28 26 22 21 20 21 25 27 30 35 40 49 44 42 40 39 38 37 38 38 41 37 34 32 35 34 34 35 37 37 37
41 44 44 44 44 37 35 34 34 28 26 24 22 21 19 18 19 21 23 27 29 34 37 39 40 42 41 39 35 35 31 26 38 35 25 23 32 33 31 35 35 34 34
35 40 45 44 42 39 34 33 29 24 22 20 18 17 16 15 20 18 23 25 28 30 32 32 34 38 41 41 35 32 30 38 44 27 24 21 30 33 32 32 31 31 33
41 37 44 43 41 38 34 31 26 20 16 14 13 14 15 12 18 14 21 23 25 28 30 29 30 36 41 39 34 28 27 30 22 28 21 24 29 28 29 30 30 30 31
40 37 44 44 40 36 34 29 25 22 17 12 10 12 15 11 14 14 18 21 22 23 25 27 27 28 29 33 33 28 28 42 25 22 20 22 26 27 28 29 30 30 30
32 39 43 45 40 35 32 29 25 20 17 13 10 9 11 11 11 17 16 20 21 21 22 23 25 26 27 26 26 38 25 23 38 31 26 24 26 28 28 29 30 30 29
34 35 42 41 38 33 30 25 22 19 15 13 12 8 9 11 11 15 18 19 21 19 20 21 23 26 27 27 19 41 28 28 16 27 26 22 24 27 27 29 29 28 28
50 29 37 40 36 32 26 21 18 16 15 13 11 10 10 11 13 14 17 18 17 19 19 19 22 25 26 31 39 49 30 28 19 21 18 19 20 25 27 28 27 27 27
51 38 34 32 33 32 20 18 15 14 13 12 14 15 10 10 11 12 13 12 14 15 19 20 23 30 34 35 38 44 37 30 16 15 11 17 19 25 26 26 26 26 25
58 52 31 23 29 19 23 15 11 13 16 14 15 10 10 8 14 13 18 14 13 15 20 23 30 31 27 30 26 23 16 34 24 14 10 17 20 23 21 22 22 23 22
49 53 46 37 38 36 24 13 18 17 11 11 10 10 7 4 9 8 8 11 17 20 21 27 16 16 18 23 17 31 34 25 12 13 10 16 20 23 21 18 19 20 20
56 50 44 40 44 39 25 25 20 17 12 13 12 6 7 13 15 18 19 18 13 23 21 23 17 5 6 1 13 10 14 14 17 15 10 10 14 19 16 18 17 17 17
59 54 51 40 37 41 26 32 21 15 23 18 18 8 10 16 18 18 22 10 6 22 19 14 20 19 17 10 13 14 10 6 8 9 7 5 11 13 10 13 14 15 16
52 50 48 48 37 33 35 35 29 20 20 13 23 15 12 17 17 13 9 10 10 23 27 23 17 13 16 15 13 8 11 3 5 6 5 3 8 8 5 6 8 12 13
39 52 57 56 47 38 30 37 35 36 28 14 14 15 16 11 18 19 18 10 16 25 25 18 17 19 12 21 18 6 10 12 9 10 5 11 3 6 2 3 3 4 9
51 52 64 55 48 36 30 32 38 35 31 23 22 16 14 16 16 14 12 17 26 32 23 17 11 8 18 21 21 17 13 9 16 15 13 7 7 15 9 2 4 6 7
59 58 67 57 46 38 27 31 42 32 23 19 16 19 19 19 21 12 13 21 36 31 25 18 15 22 20 17 16 17 18 16 20 18 13 14 13 16 13 6 6 3 7
63 73 67 64 54 48 39 34 40 37 26 25 22 24 25 18 13 19 17 21 41 37 32 28 25 24 15 13 17 14 18 20 18 15 19 22 11 21 17 14 11 5 3
71 69 67 63 61 54 44 33 30 33 32 32 31 27 25 26 17 15 16 19 38 43 35 31 24 25 19 17 22 18 13 18 20 20 20 28 23 15 14 22 13 10 9
69 71 71 66 59 53 46 36 25 35 34 34 34 28 32 30 22 20 15 23 38 38 37 35 34 33 27 29 25 13 11 9 17 18 22 27 29 24 18 19 19 20 14
71 71 72 66 60 54 50 46 37 42 38 37 27 31 40 34 27 27 22 28 34 34 31 31 28 36 30 31 28 22 9 9 21 10 21 13 25 20 9 11 22 22 19
74 73 74 67 60 56 53 49 41 40 39 21 16 28 26 31 34 36 28 31 34 36 31 27 27 38 33 31 26 17 20 14 24 10 24 25 30 23 13 8 9 16 21
75 77 76 70 62 58 60 56 54 48 43 29 28 22 18 25 30 40 37 35 35 38 33 27 28 35 31 34 31 28 28 24 13 21 16 35 37 37 22 20 16 19 20
Wind_Direction_500mb
146 139 138 136 132 132 136 129 117 118 112 104 97 94 96 96 95 90 86 89 91 94 110 128 124 119 114 115 114 109 111 114 112 111 111 110 109 110 106 105 113 111 113
146 146 142 140 135 138 137 132 125 125 116 103 96 91 93 93 90 83 83 92 95 93 103 131 133 124 113 120 119 116 118 114 112 112 116 114 111 108 103 115 112 114 114
148 149 144 147 144 140 140 135 130 132 115 104 94 90 95 91 84 83 85 95 97 91 96 115 126 123 115 116 115 122 120 116 109 112 114 114 114 113 110 111 110 111 112
154 156 152 149 149 145 142 137 135 133 119 108 99 92 90 84 85 86 94 100 104 99 110 114 116 111 111 112 112 115 114 116 106 100 120 120 121 115 117 117 116 115 117
155 157 155 150 151 151 146 143 140 138 126 114 100 91 86 85 83 92 104 106 110 110 117 117 116 113 116 116 118 109 103 111 108 119 102 115 121 121 123 120 117 117 115
155 157 158 155 154 153 150 147 146 146 131 121 107 94 91 83 84 92 112 112 115 119 120 121 118 117 120 121 115 104 107 116 122 116 108 124 124 124 122 117 120 118 119
162 157 162 162 161 161 163 158 159 156 141 131 117 110 104 90 93 96 115 119 119 122 128 128 123 123 121 125 120 111 106 123 151 115 113 137 127 127 127 123 124 123 119
160 158 165 167 167 167 171 171 171 171 159 153 139 126 116 103 107 105 116 121 123 125 126 131 131 129 131 131 129 121 109 121 136 120 125 144 138 135 133 127 128 126 123
162 165 167 167 170 172 172 173 177 177 170 167 161 143 129 120 116 131 120 126 132 129 128 127 127 123 117 120 145 146 131 136 124 132 136 140 137 136 139 134 131 130 126
167 167 174 173 174 174 175 179 178 182 188 185 181 173 159 140 140 145 139 134 143 143 135 129 124 123 118 111 144 153 146 123 99 126 129 142 143 140 140 137 135 133 129
177 174 176 175 173 172 173 182 188 198 202 198 194 185 177 156 151 159 149 140 140 145 143 133 132 133 127 126 123 145 146 132 114 101 124 149 158 146 147 142 140 134 133
178 178 171 166 167 170 161 182 198 203 198 171 158 148 183 174 178 156 189 153 146 145 141 141 136 138 136 141 133 135 144 150 147 121 128 153 158 149 147 142 144 140 140
169 179 171 164 171 173 180 165 214 174 161 170 170 161 162 187 168 169 173 173 157 152 149 143 135 150 155 136 139 143 144 177 151 142 123 153 164 150 137 144 145 144 146
164 182 179 180 186 200 203 187 164 154 140 142 140 164 146 172 194 178 177 152 151 152 153 157 150 174 180 133 155 146 122 145 147 119 114 161 162 140 135 143 145 147 150
169 175 196 204 192 195 193 198 195 175 170 159 167 124 182 202 195 205 205 210 165 160 160 148 148 237 280 253 110 104 147 85 118 122 115 134 164 157 143 140 136 148 152
185 188 195 203 192 199 202 197 195 203 213 215 196 180 203 241 244 211 185 214 197 170 181 200 199 184 188 155 129 151 120 92 142 139 131 115 164 176 160 161 152 149 148
185 188 202 203 193 205 196 201 193 180 181 189 167 188 226 240 260 257 261 252 242 206 204 216 187 189 211 178 153 166 192 212 216 185 241 45 169 185 186 179 174 164 181
190 200 204 202 203 201 229 205 200 198 197 175 157 210 243 245 227 249 238 222 212 204 194 198 201 248 226 210 222 157 137 180 225 257 194 234 207 237 255 124 219 213 199
191 202 191 201 202 217 225 201 188 188 184 195 216 221 252 269 247 229 235 189 187 182 196 178 210 177 153 153 152 150 161 177 205 233 212 201 220 258 258 4 175 212 220
202 194 183 197 209 227 215 196 186 184 188 212 223 232 231 247 262 241 235 185 188 187 185 181 224 148 158 156 172 190 192 211 224 214 222 214 223 225 220 210 200 203 230
199 197 202 205 213 217 216 199 186 189 190 208 224 232 238 261 254 234 221 194 191 186 182 195 201 181 166 170 190 195 222 208 201 183 201 230 245 186 177 211 210 179 261
198 197 198 200 208 213 220 218 207 200 199 212 220 224 228 247 258 228 223 197 187 185 186 193 183 185 194 191 198 207 161 188 200 199 204 226 222 199 235 210 164 154 164
201 200 200 201 208 211 213 208 203 201 214 216 225 227 230 230 235 228 203 185 179 183 187 190 188 179 182 192 208 191 196 197 187 212 209 223 214 208 218 182 188 166 164
198 202 198 200 205 210 206 205 209 210 213 227 225 209 212 214 214 223 203 192 185 188 193 203 206 199 196 195 206 214 222 209 187 192 197 203 196 209 176 201 205 187 182
198 201 198 203 207 209 210 211 216 216 227 223 207 216 232 209 212 206 203 204 199 198 202 201 208 201 200 197 195 201 191 204 208 213 168 184 197 197 181 163 145 198 168
198 201 202 202 207 212 212 218 222 209 219 215 220 204 218 209 204 206 203 208 204 206 202 193 196 203 205 202 205 207 208 213 214 221 236 201 194 195 193 187 192 202 198
Wind_Speed_850mb
41 45 42 44 39 41 44 40 39 38 39 42 38 34 29 32 30 26 26 25 26 23 19 25 32 35 31 31 29 33 37 39 41 39 46 49 48 44 35 32 38 40 40
49 45 48 40 37 41 40 37 36 35 34 37 33 29 25 26 27 25 26 27 28 22 19 27 38 38 35 38 36 39 39 40 38 38 43 44 42 39 37 32 36 38 37
48 44 45 37 39 41 38 37 36 34 34 32 30 28 25 24 23 22 25 27 29 31 36 46 50 40 40 40 40 40 40 45 44 40 36 36 38 35 34 35 39 39 39
45 45 42 39 43 40 37 36 36 31 30 27 28 26 22 21 20 21 25 27 30 35 40 49 44 42 40 39 38 37 38 38 41 37 34 32 35 34 34 35 37 37 37
41 44 44 44 44 37 35 34 34 28 26 24 22 21 19 18 19 21 23 27 29 34 37 39 40 42 41 39 35 35 31 26 38 35 25 23 32 33 31 35 35 34 34
35 40 45 44 42 39 34 33 29 24 22 20 18 17 16 15 20 18 23 25 28 30 32 32 34 38 41 41 35 32 30 38 44 27 24 21 30 33 32 32 31 31 33
41 37 44 43 41 38 34 31 26 20 16 14 13 14 15 12 18 14 21 23 25 28 30 29 30 36 41 39 34 28 27 30 22 28 21 24 29 28 29 30 30 30 31
40 37 44 44 40 36 34 29 25 22 17 12 10 12 15 11 14 14 18 21 22 23 25 27 27 28 29 33 33 28 28 42 25 22 20 22 26 27 28 29 30 30 30
32 39 43 45 40 35 32 29 25 20 17 13 10 9 11 11 11 17 16 20 21 21 22 23 25 26 27 26 26 38 25 23 38 31 26 24 26 28 28 29 30 30 29
34 35 42 41 38 33 30 25 22 19 15 13 12 8 9 11 11 15 18 19 21 19 20 21 23 26 27 27 19 41 28 28 16 27 26 22 24 27 27 29 29 28 28
50 29 37 40 36 32 26 21 18 16 15 13 11 10 10 11 13 14 17 18 17 19 19 19 22 25 26 31 39 49 30 28 19 21 18 19 20 25 27 28 27 27 27
51 38 34 32 33 32 20 18 15 14 13 12 14 15 10 10 11 12 13 12 14 15 19 20 23 30 34 35 38 44 37 30 16 15 11 17 19 25 26 26 26 26 25
58 52 31 23 29 19 23 15 11 13 16 14 15 10 10 8 14 13 18 14 13 15 20 23 30 31 27 30 26 23 16 34 24 14 10 17 20 23 21 22 22 23 22
49 53 46 37 38 36 24 13 18 17 11 11 10 10 7 4 9 8 8 11 17 20 21 27 16 16 18 23 17 31 34 25 12 13 10 16 20 23 21 18 19 20 20
56 50 44 40 44 39 25 25 20 17 12 13 12 6 7 13 15 18 19 18 13 23 21 23 17 5 6 1 13 10 14 14 17 15 10 10 14 19 16 18 17 17 17
59 54 51 40 37 41 26 32 21 15 23 18 18 8 10 16 18 18 22 10 6 22 19 14 20 19 17 10 13 14 10 6 8 9 7 5 11 13 10 13 14 15 16
52 50 48 48 37 33 35 35 29 20 20 13 23 15 12 17 17 13 9 10 10 23 27 23 17 13 16 15 13 8 11 3 5 6 5 3 8 8 5 6 8 12 13
39 52 57 56 47 38 30 37 35 36 28 14 14 15 16 11 18 19 18 10 16 25 25 18 17 19 12 21 18 6 10 12 9 10 5 11 3 6 2 3 3 4 9
51 52 64 55 48 36 30 32 38 35 31 23 22 16 14 16 16 14 12 17 26 32 23 17 11 8 18 21 21 17 13 9 16 15 13 7 7 15 9 2 4 6 7
59 58 67 57 46 38 27 31 42 32 23 19 16 19 19 19 21 12 13 21 36 31 25 18 15 22 20 17 16 17 18 16 20 18 13 14 13 16 13 6 6 3 7
63 73 67 64 54 48 39 34 40 37 26 25 22 24 25 18 13 19 17 21 41 37 32 28 25 24 15 13 17 14 18 20 18 15 19 22 11 21 17 14 11 5 3
71 69 67 63 61 54 44 33 30 33 32 32 31 27 25 26 17 15 16 19 38 43 35 31 24 25 19 17 22 18 13 18 20 20 20 28 23 15 14 22 13 10 9
69 71 71 66 59 53 46 36 25 35 34 34 34 28 32 30 22 20 15 23 38 38 37 35 34 33 27 29 25 13 11 9 17 18 22 27 29 24 18 19 19 20 14
71 71 72 66 60 54 50 46 37 42 38 37 27 31 40 34 27 27 22 28 34 34 31 31 28 36 30 31 28 22 9 9 21 10 21 13 25 20 9 11 22 22 19
74 73 74 67 60 56 53 49 41 40 39 21 16 28 26 31 34 36 28 31 34 36 31 27 27 38 33 31 26 17 20 14 24 10 24 25 30 23 13 8 9 16 21
75 77 76 70 62 58 60 56 54 48 43 29 28 22 18 25 30 40 37 35 35 38 33 27 28 35 31 34 31 28 28 24 13 21 16 35 37 37 22 20 16 19 20
Wind_Direction_850mb
146 139 138 136 132 132 136 129 117 118 112 104 97 94 96 96 95 90 86 89 91 94 110 128 124 119 114 115 114 109 111 114 112 111 111 110 109 110 106 105 113 111 113
146 146 142 140 135 138 137 132 125 125 116 103 96 91 93 93 90 83 83 92 95 93 103 131 133 124 113 120 119 116 118 114 112 112 116 114 111 108 103 115 112 114 114
148 149 144 147 144 140 140 135 130 132 115 104 94 90 95 91 84 83 85 95 97 91 96 115 126 123 115 116 115 122 120 116 109 112 114 114 114 113 110 111 110 111 112
154 156 152 149 149 145 142 137 135 133 119 108 99 92 90 84 85 86 94 100 104 99 110 114 116 111 111 112 112 115 114 116 106 100 120 120 121 115 117 117 116 115 117
155 157 155 150 151 151 146 143 140 138 126 114 100 91 86 85 83 92 104 106 110 110 117 117 116 113 116 116 118 109 103 111 108 119 102 115 121 121 123 120 117 117 115
155 157 158 155 154 153 150 147 146 146 131 121 107 94 91 83 84 92 112 112 115 119 120 121 118 117 120 121 115 104 107 116 122 116 108 124 124 124 122 117 120 118 119
162 157 162 162 161 161 163 158 159 156 141 131 117 110 104 90 93 96 115 119 119 122 128 128 123 123 121 125 120 111 106 123 151 115 113 137 127 127 127 123 124 123 119
160 158 165 167 167 167 171 171 171 171 159 153 139 126 116 103 107 105 116 121 123 125 126 131 131 129 131 131 129 121 109 121 136 120 125 144 138 135 133 127 128 126 123
162 165 167 167 170 172 172 173 177 177 170 167 161 143 129 120 116 131 120 126 132 129 128 127 127 123 117 120 145 146 131 136 124 132 136 140 137 136 139 134 131 130 126
167 167 174 173 174 174 175 179 178 182 188 185 181 173 159 140 140 145 139 134 143 143 135 129 124 123 118 111 144 153 146 123 99 126 129 142 143 140 140 137 135 133 129
177 174 176 175 173 172 173 182 188 198 202 198 194 185 177 156 151 159 149 140 140 145 143 133 132 133 127 126 123 145 146 132 114 101 124 149 158 146 147 142 140 134 133
178 178 171 166 167 170 161 182 198 203 198 171 158 148 183 174 178 156 189 153 146 145 141 141 136 138 136 141 133 135 144 150 147 121 128 153 158 149 147 142 144 140 140
169 179 171 164 171 173 180 165 214 174 161 170 170 161 162 187 168 169 173 173 157 152 149 143 135 150 155 136 139 143 144 177 151 142 123 153 164 150 137 144 145 144 146
164 182 179 180 186 200 203 187 164 154 140 142 140 164 146 172 194 178 177 152 151 152 153 157 150 174 180 133 155 146 122 145 147 119 114 161 162 140 135 143 145 147 150
169 175 196 204 192 195 193 198 195 175 170 159 167 124 182 202 195 205 205 210 165 160 160 148 148 237 280 253 110 104 147 85 118 122 115 134 164 157 143 140 136 148 152
185 188 195 203 192 199 202 197 195 203 213 215 196 180 203 241 244 211 185 214 197 170 181 200 199 184 188 155 129 151 120 92 142 139 131 115 164 176 160 161 152 149 148
185 188 202 203 193 205 196 201 193 180 181 189 167 188 226 240 260 257 261 252 242 206 204 216 187 189 211 178 153 166 192 212 216 185 241 45 169 185 186 179 174 164 181
190 200 204 202 203 201 229 205 200 198 197 175 157 210 243 245 227 249 238 222 212 204 194 198 201 248 226 210 222 157 137 180 225 257 194 234 207 237 255 124 219 213 199
191 202 191 201 202 217 225 201 188 188 184 195 216 221 252 269 247 229 235 189 187 182 196 178 210 177 153 153 152 150 161 177 205 233 212 201 220 258 258 4 175 212 220
202 194 183 197 209 227 215 196 186 184 188 212 223 232 231 247 262 241 235 185 188 187 185 181 224 148 158 156 172 190 192 211 224 214 222 214 223 225 220 210 200 203 230
199 197 202 205 213 217 216 199 186 189 190 208 224 232 238 261 254 234 221 194 191 186 182 195 201 181 166 170 190 195 222 208 201 183 201 230 245 186 177 211 210 179 261
198 197 198 200 208 213 220 218 207 200 199 212 220 224 228 247 258 228 223 197 187 185 186 193 183 185 194 191 198 207 161 188 200 199 204 226 222 199 235 210 164 154 164
201 200 200 201 208 211 213 208 203 201 214 216 225 227 230 230 235 228 203 185 179 183 187 190 188 179 182 192 208 191 196 197 187 212 209 223 214 208 218 182 188 166 164
198 202 198 200 205 210 206 205 209 210 213 227 225 209 212 214 214 223 203 192 185 188 193 203 206 199 196 195 206 214 222 209 187 192 197 203 196 209 176 201 205 187 182
198 201 198 203 207 209 210 211 216 216 227 223 207 216 232 209 212 206 203 204 199 198 202 201 208 201 200 197 195 201 191 204 208 213 168 184 197 197 181 163 145 198 168
198 201 202 202 207 212 212 218 222 209 219 215 220 204 218 209 204 206 203 208 204 206 202 193 196 203 205 202 205 207 208 213 214 221 236 201 194 195 193 187 192 202 198